Regional Weather Roundup
Issued by NWS Memphis, TN

Home | Current Version | Previous Version | Text Only | Print | Product List | Glossary On
Versions: 1 2 3 4 5 6 7 8 9 10 11 12 13 14 15 16 17 18 19 20 21 22 23 24 25 26 27 28 29 30 31 32 33 34 35 36 37 38 39 40 41 42 43 44 45 46 47 48 49 50
000
ASUS44 KMEG 220810
RWRMEG
MEMPHIS CWA HOURLY WEATHER ROUNDUP
NATIONAL WEATHER SERVICE MEMPHIS TN
300 AM CDT FRI MAY 22 2015

...WEST TENNESSEE...

CITY           SKY/WX    TMP DP  RH WIND       PRES   REMARKS
MEMPHIS INTL   CLEAR     50  45  83 N5        30.21S
NWS MEMPHIS      N/A     46 N/A N/A MISG        N/A
JACKSON        FOG       45  43  93 CALM      30.22S VSB 3/4
LEXINGTON      CLEAR     43  43 100 CALM      30.20S
DYERSBURG      CLEAR     46  34  61 CALM      30.24R
PARIS          CLEAR     41  41 100 CALM      30.21F


...EASTERN ARKANSAS...

CITY           SKY/WX    TMP DP  RH WIND       PRES   REMARKS
JONESBORO      CLEAR     47  45  93 NE3       30.22S
WEST MEMPHIS   CLEAR     48  47  96 N3        30.21S
BATESVILLE     CLEAR     48  46  93 CALM      30.22F
NEWPORT        CLEAR     51  49  93 CALM      30.23F
WALNUT RIDGE   CLEAR     50  45  81 NW5       30.22F
BLYTHEVILLE    CLEAR     47  46  97 N3        30.23S
STUTTGART      CLEAR     52  46  82 SE3       30.23R
PINE BLUFF     CLEAR     49  48  97 CALM      30.22S
MONTICELLO     CLEAR     48  47  96 CALM      30.21S


...NORTH MISSISSIPPI...

CITY           SKY/WX    TMP DP  RH WIND       PRES   REMARKS
TUPELO         CLEAR     47  44  90 N3        30.19S
OXFORD         CLEAR     43  41  93 CALM      30.22F
OLIVE BRANCH   CLEAR     45  45 100 CALM      30.22S
TUNICA         CLEAR     48  46  93 N6        30.22S
CLARKSDALE       N/A     48  48 100 CALM      30.22R
CORINTH        CLEAR     46  45  93 CALM      30.20R FOG
GREENWOOD      CLEAR     48  45  89 CALM      30.20S FOG
COLUMBUS       CLEAR     49  47  96 N6        30.18S
STARKVILLE     FAIR      46  46 100 CALM      30.19S
GOLDEN TRIANGL CLEAR     50  46  87 N3        30.17F


...SOUTHEAST MISSOURI...

CITY           SKY/WX    TMP DP  RH WIND       PRES   REMARKS
WEST PLAINS    CLEAR     42  39  89 CALM      30.23
POPLAR BLUFF   CLEAR     46  44  93 NW3       30.23S
CAPE GIRARDEAU CLEAR     45  45 100 CALM      30.23R


...NORTHWEST ALABAMA...

CITY           SKY/WX    TMP DP  RH WIND       PRES   REMARKS
MUSCLE SHOALS  CLEAR     50  45  83 VRB3      30.20S


...MIDDLE TENNESSEE...

CITY           SKY/WX    TMP DP  RH WIND       PRES   REMARKS
NASHVILLE      CLEAR     48  45  89 NW3       30.21R
CLARKSVILLE    CLEAR     44  42  93 CALM      30.22R
COLUMBIA       CLEAR     43  43 100 CALM      30.18S


...WESTERN KENTUCKY...

CITY           SKY/WX    TMP DP  RH WIND       PRES   REMARKS
PADUCAH        CLEAR     44  41  89 SW3       30.21S
FORT CAMPBELL  CLEAR     46  44  93 SW3       30.21S


...CENTRAL ARKANSAS...

CITY           SKY/WX    TMP DP  RH WIND       PRES   REMARKS
LITTLE ROCK    CLEAR     53  48  83 CALM      30.23R


SKY/WX REPORTED AS FAIR MEANS FEW OR NO CLOUDS BELOW
12 THOUSAND FEET.



USA.gov is the U.S. government's official web portal to all federal, state and local government web resources and services.